Regional Weather Roundup
Issued by NWS Charleston, SC

Current Version | Previous Version | Graphics & Text | Print | Product List | Glossary On
Versions: 1 2 3 4 5 6 7 8 9 10 11 12 13 14 15 16 17 18 19 20 21 22 23 24 25 26 27 28 29 30 31 32 33 34 35 36 37 38 39 40 41 42 43 44 45 46 47 48 49 50
522
ASUS42 KCHS 230212
RWRCHS

Regional Weather Roundup
National Weather Service Charleston SC
1000 PM EDT SUN APR 22 2018

NOTE: "fair" indicates few or no clouds below 12,000 feet with no
significant weather and/or obstructions to visibility.

Not all stations are quality controlled. Use data with caution,
especially dewpoint observations.

SCZ027-030-031-034>040-042>050-230300-
...Southeast South Carolina...

CITY           SKY/WX    TMP DP  RH WIND       PRES   REMARKS
N Charleston   CLOUDY    67  54  63 E17       30.24F
Waterfront Prk NOT AVBL
Mount Pleasant CLOUDY    66  55  68 E10       30.26S
Johns Island   FAIR      66  57  72 NE17G24   30.24F
Pinopolis        N/A     64  57  77 E7        30.17R
Moncks Corner  CLOUDY    63  54  72 E6        30.26S
Summerville    CLOUDY    64  54  68 E7        30.26S
Beaufort MCAS  CLOUDY    68  57  68 E14G20    30.21S
Beaufort Arpt  CLOUDY    66  55  68 E13       30.21S
Hilton Head Is MOCLDY    66  61  82 E10G17    30.21S
Walterboro     CLOUDY    63  55  77 E10       30.23F
Allendale      MOCLDY    64  54  68 SE9       30.20S

...Southern Midlands and Pee Dee...

CITY           SKY/WX    TMP DP  RH WIND       PRES   REMARKS
Georgetown     CLOUDY    61  61 100 E7        30.30R
Kingstree      CLOUDY    61  54  77 E9        30.27S
Orangeburg     LGT RAIN  64  52  64 SE9G18    30.24R
Barnwell       CLOUDY    63  54  72 E9        30.21S
Aiken          DRIZZLE   59  54  82 E9        30.24S
Manning        LGT RAIN  59  50  72 SE8       30.26F
Columbia       LGT RAIN  61  59  93 E8        30.23R
Sumter         CLOUDY    61  54  77 SE12      30.23F
Florence       FAIR      63  51  65 SE9       30.29R
Myrtle Beach   FAIR      63  53  70 E13       30.31S
N Myrtle Beach FAIR      63  52  67 E8        30.30R

$$

GAZ063-065-086>088-099>101-113>116-118-119-134>141-150-230300-
...Southeast Georgia...

CITY           SKY/WX    TMP DP  RH WIND       PRES   REMARKS
Savannah Arpt  FAIR      67  58  72 E13       30.18S
Hunter AAF     FAIR      67  59  77 E17       30.15F
Fort Stewart   MOCLDY    66  59  77 E10       30.12F
Statesboro     CLOUDY    66  52  60 E8        30.15F
Sylvania       FAIR      64  57  77 E15       30.17F
Claxton        FAIR      67  60  76 NE12G18   30.14F

...CSRA, Central and far Southeast Georgia...

CITY           SKY/WX    TMP DP  RH WIND       PRES   REMARKS
Thomson        LGT RAIN  59  57  93 S9        30.23R
Augusta-Bush   LGT RAIN  61  57  87 E5        30.19S
Augusta-Daniel LGT RAIN  62  57  83 SE8       30.20R
Swainsboro     CLOUDY    64  57  77 SE16G22   30.17R
Vidalia        FAIR      66  59  77 E12G17    30.13R
Eastman        CLOUDY    66  54  63 SE12G17   30.12S
Hazlehurst     FAIR      69  56  63 SE12G17   30.10R
Alma           MOCLDY    68  60  75 E12G20    30.10R
Waycross       CLOUDY    67  64  90 E15       30.10S
Jesup          CLOUDY    66  61  82 CALM      30.13
Baxley         MOCLDY    66  59  77 SE10G23   30.12R
Brunswick      LGT RAIN  64  61  88 E13       30.13F
Saint Simons   CLOUDY    67  65  93 NE12      30.12F

$$

SCZ027-028-034-036>038-045-046-048>050-GAZ119-141-230300-
...Lake and Supplemental Coastal Observations...

STATION/POSITION TIME  TEMP    WIND        PRES    WAVE   SWELL
                       AIR SEA DIR/SP/G            HT/PER HT/PER/DIR
                 (UTC) (F)     (DEG/KT/KT) (MB)    (FT/S) (FT/S/D)
Winyah Bay       0045   63      80/ 13     1025.0
Lake Murray      0120   63     100/ 14/ 19 1022.4
ACE Basin NERRS  0045   67     350/  3       N/A
Fort Pulaski     0142   66 65   80/ 15/ 17 1022.9R
Sapelo Island    0100   66      70/  8     1021.0

$$

ANZ835-935-AMZ111-154-330-350-352-354-370-450-454-472-230300-
...C-MAN and Buoy Observations...

STATION/POSITION TIME  TEMP    WIND        PRES    WAVE   SWELL
                       AIR SEA DIR/SP/G            HT/PER HT/PER/DIR
                 (UTC) (F)     (DEG/KT/KT) (MB)    (FT/S) (FT/S/D)
Buoy 41004       0150   69 67  100/ 17/ 21 1024.2R   5/ 5   2/ 60/12
Buoy 41008       0150   67 65   90/ 16/ 19 1020.4F   5/ 7   2/360/13
Folly Beach CMAN 0100   65      70/ 16/ 20 1024.8R
Capers Nearshore 0108   65 63   80/ 16/ 21 1024.7R
Fripp Nearshore  0108   65 64   70/ 14/ 21 1022.5R


STATION/POSITION TIME  TEMP    WIND        PRES    WAVE   SWELL
                       AIR SEA DIR/SP/G            HT/PER HT/PER/DIR
                 (UTC) (F)     (DEG/KT/KT) (MB)    (FT/S) (FT/S/D)
5E St. Marys GA  0200      67                N/A     5/ 7
Frying Pan Buoy  0150   67 70  110/ 16/ 19 1026.3R   4/ 6   2/100/ 8
Buoy 41025       0150   65 74  110/ 14/ 17 1028.3R   3/ 5   2/100/ 8
Cape Lookout NC  0100           50/ 11/ 12 1027.3R
Buoy 41002       0150   67 72  100/ 14/ 19 1025.5F   4/ 7   2/100/ 7
Buoy 41010       0150   73 75   90/ 21/ 27 1020.4F   7/ 8   2/120/13
St Augustine FL  0200   70 69  140/ 13/ 14 1019.4R


$$




USA.gov is the U.S. government's official web portal to all federal, state and local government web resources and services.